Location: *
(38.3914°N, 75.0697°W)
Time: 05:23:31
(UTC+00:00)

CZ-2C R/B - Pass Details

Date: 17 February 2020
Orbit: 667 x 785 km, 98.1° (Epoch: 31 March)

Event Time Altitude Azimuth Distance (km) Brightness Sun altitude
Rises 09:40:09 0° 7° (N) 3,281 5.9 -25.9°
Reaches altitude 10° 09:42:32 10° 2° (N) 2,344 5.1 -25.4°
Enters shadow 09:45:58 38° 338° (NNW) 1,178 3.3 -24.7°
